UAL50WP KMCO-KEWR

Flight info

Callsign UAL50WP
Flight time N/A
Altitude 35000
Route FATHE4 VIYAP Q87 ALWZZ DCT OGRAE Q99 QUART PHLBO4
Aircraft B738/M-SDE2E3FGHIRWXY/LB1

Departure

Time 2026-05-07 08:03
Airport Orlando International Airport (KMCO)

Arrival

Time N/A
Airport Newark Liberty International Airport (KEWR)
Time Latitude Longitude Altitude Speed Heading
2026-05-07 07:53 28.43474 -81.30011 100 ft 0 kts 269°
2026-05-07 07:59 28.43474 -81.30007 118 ft 2 kts 269°
2026-05-07 07:59 28.43475 -81.29989 107 ft 2 kts 265°
2026-05-07 07:59 28.43477 -81.29971 100 ft 2 kts 260°
2026-05-07 08:00 28.43480 -81.29953 100 ft 2 kts 297°
2026-05-07 08:00 28.43474 -81.29947 100 ft 3 kts 15°
2026-05-07 08:00 28.43509 -81.29936 100 ft 0 kts 14°
2026-05-07 08:01 28.43529 -81.29930 100 ft 0 kts 19°
2026-05-07 08:01 28.43533 -81.29927 100 ft 0 kts 25°
2026-05-07 08:01 28.43548 -81.29885 100 ft 13 kts 83°
2026-05-07 08:01 28.43549 -81.29777 103 ft 18 kts 89°
2026-05-07 08:02 28.43545 -81.29627 103 ft 16 kts 114°
2026-05-07 08:02 28.43397 -81.29586 106 ft 43 kts 179°
2026-05-07 08:02 28.42823 -81.29578 103 ft 120 kts 179°
2026-05-07 08:02 28.41777 -81.29554 237 ft 169 kts 179°
2026-05-07 08:03 28.40486 -81.29585 650 ft 203 kts 181°
2026-05-07 08:03 28.39028 -81.29523 1346 ft 211 kts 175°
2026-05-07 08:03 28.37634 -81.29138 2176 ft 209 kts 154°
2026-05-07 08:03 28.36432 -81.28140 2558 ft 213 kts 140°
2026-05-07 08:04 28.35376 -81.27029 3060 ft 209 kts 141°
2026-05-07 08:04 28.34277 -81.25899 3292 ft 220 kts 136°
2026-05-07 08:04 28.33518 -81.24327 3371 ft 237 kts 99°
2026-05-07 08:04 28.33814 -81.22482 3537 ft 249 kts 61°
2026-05-07 08:05 28.35003 -81.21059 3853 ft 252 kts 32°
2026-05-07 08:05 28.36670 -81.20450 4195 ft 254 kts
2026-05-07 08:05 28.38424 -81.20537 4558 ft 255 kts 353°
2026-05-07 08:05 28.40200 -81.20822 4885 ft 257 kts 351°
2026-05-07 08:06 28.41971 -81.21140 5242 ft 259 kts 351°
2026-05-07 08:06 28.43763 -81.21459 5549 ft 262 kts 351°
2026-05-07 08:06 28.45577 -81.21782 5864 ft 265 kts 350°
2026-05-07 08:06 28.47421 -81.22187 6032 ft 277 kts 349°
2026-05-07 08:07 28.49367 -81.22607 6240 ft 290 kts 350°
2026-05-07 08:07 28.51348 -81.22999 6707 ft 293 kts 351°
2026-05-07 08:07 28.53371 -81.23366 7268 ft 293 kts 351°
2026-05-07 08:07 28.55375 -81.23705 7817 ft 295 kts 351°
2026-05-07 08:08 28.57423 -81.24033 8359 ft 297 kts 352°
2026-05-07 08:08 28.59480 -81.24350 8923 ft 299 kts 352°
2026-05-07 08:08 28.61548 -81.24661 9485 ft 301 kts 351°
2026-05-07 08:08 28.63632 -81.24970 10039 ft 303 kts 351°
2026-05-07 08:09 28.65736 -81.25279 10303 ft 317 kts 351°
2026-05-07 08:09 28.67983 -81.25608 10451 ft 334 kts 351°
2026-05-07 08:09 28.70352 -81.25954 10579 ft 350 kts 351°
2026-05-07 08:09 28.72834 -81.26316 10699 ft 366 kts 351°
2026-05-07 08:10 28.75406 -81.26689 10873 ft 377 kts 351°
2026-05-07 08:10 28.78001 -81.27064 11270 ft 381 kts 351°